Satellite: DO-64
Catalog number: 32789
Epoch time:      12047.69654800
Element set:     231
Inclination:      097.8271 deg
RA of node:       113.5950 deg
Eccentricity:    0.0016044
Arg of perigee:   096.4983 deg
Mean anomaly:     263.8076 deg
Mean motion:   14.84944795 rev/day
Decay rate:      3.273e-05 rev/day^2
Epoch rev:           20584
Checksum:              339

Satellite: CO-66
Catalog number: 32791
Epoch time:      12047.82930179
Element set:     218
Inclination:      097.8173 deg
RA of node:       111.6375 deg
Eccentricity:    0.0016849
Arg of perigee:   096.7828 deg
Mean anomaly:     263.5277 deg
Mean motion:   14.83017591 rev/day
Decay rate:      1.479e-05 rev/day^2
Epoch rev:           20575
Checksum:              345

Satellite: RS-30
Catalog number: 32953
Epoch time:      12047.83304171
Element set:     528
Inclination:      082.5036 deg
RA of node:       010.5953 deg
Eccentricity:    0.0017746
Arg of perigee:   210.3256 deg
Mean anomaly:     149.6803 deg
Mean motion:   12.43020880 rev/day
Decay rate:        1.0e-07 rev/day^2
Epoch rev:           16948
Checksum:              271

Satellite: TACSAT-3
Catalog number: 35001
Epoch time:      12046.57211859
Element set:    0868
Inclination:      040.4482 deg
RA of node:       115.5473 deg
Eccentricity:    0.0006690
Arg of perigee:   107.6709 deg
Mean anomaly:     252.4855 deg
Mean motion:   15.73597272 rev/day
Decay rate:     8.5206e-04 rev/day^2
Epoch rev:           15504
Checksum:              307

Satellite: PHARMSAT
Catalog number: 35002
Epoch time:      12047.54031043
Element set:     797
Inclination:      040.4666 deg
RA of node:       113.8230 deg
Eccentricity:    0.0005974
Arg of perigee:   253.6730 deg
Mean anomaly:     106.3653 deg
Mean motion:   15.65115106 rev/day
Decay rate:     4.7003e-04 rev/day^2
Epoch rev:           15515
Checksum:              255

Satellite: METEOR-M
Catalog number: 35865
Epoch time:      12047.69026758
Element set:     153
Inclination:      098.6716 deg
RA of node:       104.2039 deg
Eccentricity:    0.0003263
Arg of perigee:   050.3207 deg
Mean anomaly:     309.8256 deg
Mean motion:   14.21855680 rev/day
Decay rate:       -1.7e-07 rev/day^2
Epoch rev:           12533
Checksum:              287

Satellite: RS-38
Catalog number: 35869
Epoch time:      12047.65851990
Element set:     157
Inclination:      098.6685 deg
RA of node:       104.1867 deg
Eccentricity:    0.0005342
Arg of perigee:   049.9760 deg
Mean anomaly:     310.1881 deg
Mean motion:   14.22054344 rev/day
Decay rate:        1.4e-07 rev/day^2
Epoch rev:           12534
Checksum:              312

Satellite: JUGNU
Catalog number: 37839
Epoch time:      12046.28181088
Element set:    0090
Inclination:      019.9630 deg
RA of node:       022.7870 deg
Eccentricity:    0.0018856
Arg of perigee:   311.3264 deg
Mean anomaly:     048.5464 deg
Mean motion:   14.12025143 rev/day
Decay rate:       6.19e-06 rev/day^2
Epoch rev:           01785
Checksum:              290

Satellite: SRMSAT
Catalog number: 37841
Epoch time:      12046.94774270
Element set:    0090
Inclination:      019.9738 deg
RA of node:       021.2501 deg
Eccentricity:    0.0012162
Arg of perigee:   287.1734 deg
Mean anomaly:     072.7385 deg
Mean motion:   14.10114898 rev/day
Decay rate:       2.64e-06 rev/day^2
Epoch rev:           01792
Checksum:              286

Satellite: RAX-2
Catalog number: 37853
Epoch time:      12047.92749147
Element set:      99
Inclination:      101.7135 deg
RA of node:       033.0097 deg
Eccentricity:    0.0250927
Arg of perigee:   336.2906 deg
Mean anomaly:     022.6894 deg
Mean motion:   14.78860318 rev/day
Decay rate:      6.742e-05 rev/day^2
Epoch rev:            1646
Checksum:              319

Satellite: AUBIESAT
Catalog number: 37854
Epoch time:      12046.89569174
Element set:     100
Inclination:      101.7157 deg
RA of node:       031.6095 deg
Eccentricity:    0.0251320
Arg of perigee:   338.7205 deg
Mean anomaly:     020.3707 deg
Mean motion:   14.79143175 rev/day
Decay rate:      7.039e-05 rev/day^2
Epoch rev:            1630
Checksum:              275

Satellite: HRBE
Catalog number: 37855
Epoch time:      12047.91412398
Element set:     100
Inclination:      101.7174 deg
RA of node:       033.0814 deg
Eccentricity:    0.0252259
Arg of perigee:   335.8281 deg
Mean anomaly:     023.1254 deg
Mean motion:   14.79067853 rev/day
Decay rate:      7.136e-05 rev/day^2
Epoch rev:            1645
Checksum:              283

Satellite: RS-39
Catalog number: 38051
Epoch time:      12047.74907715
Element set:      69
Inclination:      051.6519 deg
RA of node:       017.5897 deg
Eccentricity:    0.0011502
Arg of perigee:   328.6140 deg
Mean anomaly:     093.7832 deg
Mean motion:   15.22273063 rev/day
Decay rate:      7.675e-05 rev/day^2
Epoch rev:             346
Checksum:              305

/EX


More information about the Keps mailing list